Weather History for KGAF - December, 2011

Change the Weather History Date:

Saturday, December 31, 2011

  Actual Average Record
Temperature  
Mean Temperature 29 °F -  
Max Temperature 35 °F 12 °F 40 °F (1953)
Min Temperature 23 °F -5 °F -38 °F (1967)
Degree Days  
Heating Degree Days 36    
Moisture  
Dew Point 27 °F    
Average Humidity 93    
Maximum Humidity 100    
Minimum Humidity 75    
Precipitation  
Precipitation 0.05 in - - ()
Sea Level Pressure  
Sea Level Pressure 29.66 in    
Wind  
Wind Speed 13 mph (SW)    
Max Wind Speed 25 mph    
Max Gust Speed 32 mph    
Visibility 7 miles    
Events Rain , Snow    
Averages and records for this station are not official NWS values.
T = Trace of Precipitation, MM = Missing Value Source: NWS Daily Summary

Daily Weather History Graph

Daily Weather History Graph

Search for Another Location

Airport or City:

Trip Planner

Search our weather history database for the weather conditions in past years. The results will help you decide how hot, cold, wet, or windy it might be!

Date:

Astronomy

Dec. 31, 2011 Rise Set
Actual Time 8:21 AM CST 4:44 PM CST
Civil Twilight 7:44 AM CST 5:20 PM CST
Nautical Twilight 7:04 AM CST 6:00 PM CST
Astronomical Twilight 6:26 AM CST 6:38 PM CST
Moon 11:29 AM CST (12/31) No Moon Set
Length of Visible Light 9h 36m
Length of Day
8h 23m
Waxing Crescent, 45% of the Moon is Illuminated
Dec 31
Waxing Crescent
Jan 1
First Quarter
Jan 9
Full
Jan 16
Last Quarter
Jan 23
New

Hourly Weather History & Observations

Time (CST) Temp. Windchill Dew Point Humidity Pressure Visibility Wind Dir Wind Speed Gust Speed Precip Events Conditions
12:15 AM 23.0 °F 11.7 °F 23.0 °F 100% 29.67 in 4.0 mi South 11.5 mph 17.3 mph N/A   Overcast
12:35 AM 23.0 °F 10.1 °F 23.0 °F 100% 29.65 in 5.0 mi South 15.0 mph - N/A   Overcast
12:55 AM 23.0 °F 9.2 °F 23.0 °F 100% 29.63 in 6.0 mi South 17.3 mph 24.2 mph N/A   Overcast
1:15 AM 23.0 °F 9.6 °F 23.0 °F 100% 29.62 in 6.0 mi South 16.1 mph 21.9 mph N/A   Overcast
1:35 AM 23.0 °F 10.6 °F 23.0 °F 100% 29.62 in 7.0 mi South 13.8 mph - N/A   Overcast
1:55 AM 23.0 °F 10.6 °F 23.0 °F 100% 29.62 in 7.0 mi South 13.8 mph 21.9 mph N/A   Overcast
2:35 AM 24.8 °F 12.9 °F 24.8 °F 100% 29.60 in 6.0 mi South 13.8 mph - N/A   Overcast
2:55 AM 24.8 °F 14.6 °F 24.8 °F 100% 29.61 in 6.0 mi South 10.4 mph - N/A   Overcast
3:15 AM 24.8 °F 13.4 °F 24.8 °F 100% 29.60 in 5.0 mi SSE 12.7 mph - N/A   Overcast
3:35 AM 24.8 °F 14.0 °F 24.8 °F 100% 29.59 in 5.0 mi SSE 11.5 mph 17.3 mph N/A   Overcast
3:55 AM 24.8 °F 14.6 °F 24.8 °F 100% 29.58 in 5.0 mi SSE 10.4 mph - N/A   Overcast
4:15 AM 24.8 °F 13.4 °F 24.8 °F 100% 29.58 in 4.0 mi South 12.7 mph - N/A   Overcast
4:35 AM 24.8 °F 14.0 °F 24.8 °F 100% 29.57 in 4.0 mi South 11.5 mph - N/A   Overcast
5:15 AM 26.6 °F 19.1 °F 26.6 °F 100% 29.58 in 4.0 mi SSW 6.9 mph - N/A   Overcast
5:35 AM 26.6 °F 18.2 °F 26.6 °F 100% 29.58 in 2.5 mi South 8.1 mph - N/A   Overcast
6:35 AM 26.6 °F 16.2 °F 26.6 °F 100% 29.57 in 3.0 mi South 11.5 mph - N/A   Overcast
7:15 AM 26.6 °F 15.7 °F 26.6 °F 100% 29.55 in 2.0 mi SSE 12.7 mph - 0.01 in Snow Light Snow
7:35 AM 28.4 °F 17.0 °F 28.4 °F 100% 29.55 in 2.5 mi SSE 15.0 mph - 0.04 in Snow Light Snow
7:55 AM 28.4 °F 16.6 °F 28.4 °F 100% 29.54 in 3.0 mi SSE 16.1 mph - 0.05 in Rain Light Freezing Rain
8:35 AM 28.4 °F 18.0 °F 28.4 °F 100% 29.54 in 3.0 mi South 12.7 mph 26.5 mph N/A Rain Light Freezing Rain
8:55 AM 28.4 °F 17.5 °F 28.4 °F 100% 29.56 in 3.0 mi South 13.8 mph 18.4 mph N/A Rain Light Freezing Rain
9:35 AM 30.2 °F 20.8 °F 30.2 °F 100% 29.58 in 2.5 mi South 11.5 mph 17.3 mph N/A Rain Light Freezing Rain
10:15 AM 32.0 °F 24.2 °F 32.0 °F 100% 29.59 in 3.0 mi SSW 9.2 mph - N/A Rain Light Rain
10:35 AM 32.0 °F 23.0 °F 32.0 °F 100% 29.59 in 5.0 mi South 11.5 mph - N/A   Overcast
10:55 AM 32.0 °F 23.6 °F 32.0 °F 100% 29.60 in 5.0 mi SSW 10.4 mph - N/A   Mostly Cloudy
11:15 AM 32.0 °F 25.6 °F 32.0 °F 100% 29.60 in 6.0 mi SSW 6.9 mph - N/A   Scattered Clouds
11:35 AM 32.0 °F 24.2 °F 32.0 °F 100% 29.60 in 5.0 mi South 9.2 mph - N/A   Clear
11:55 AM 32.0 °F 24.2 °F 32.0 °F 100% 29.59 in 5.0 mi SSW 9.2 mph - N/A   Clear
12:15 PM 32.0 °F 24.2 °F 32.0 °F 100% 29.59 in 7.0 mi SSW 9.2 mph - N/A   Clear
12:35 PM 32.0 °F 25.6 °F 32.0 °F 100% 29.59 in 8.0 mi SSW 6.9 mph - N/A   Clear
12:55 PM 32.0 °F 25.6 °F 32.0 °F 100% 29.59 in 7.0 mi SSW 6.9 mph - N/A   Clear
1:15 PM 32.0 °F 25.6 °F 32.0 °F 100% 29.58 in 7.0 mi SSW 6.9 mph - N/A   Clear
1:35 PM 33.8 °F 29.6 °F 33.8 °F 100% 29.58 in 8.0 mi SSW 4.6 mph - N/A   Clear
1:55 PM 33.8 °F 28.6 °F 33.8 °F 100% 29.58 in 7.0 mi WSW 5.8 mph - N/A   Clear
2:15 PM 33.8 °F 28.6 °F 32.0 °F 93% 29.58 in 7.0 mi West 5.8 mph - N/A   Clear
2:35 PM 33.8 °F 29.6 °F 32.0 °F 93% 29.59 in 7.0 mi WNW 4.6 mph - N/A   Clear
2:55 PM 35.6 °F 29.2 °F 32.0 °F 87% 29.62 in 10.0 mi West 8.1 mph - N/A   Clear
3:15 PM 35.6 °F 27.5 °F 30.2 °F 81% 29.64 in 10.0 mi WNW 11.5 mph - N/A   Clear
3:35 PM 35.6 °F 26.2 °F 28.4 °F 75% 29.66 in 10.0 mi WNW 15.0 mph 19.6 mph N/A   Clear
3:55 PM 33.8 °F 22.8 °F 26.6 °F 75% 29.68 in 10.0 mi NW 18.4 mph 21.9 mph N/A   Clear
4:15 PM 33.8 °F 21.3 °F 26.6 °F 75% 29.70 in 10.0 mi WNW 24.2 mph 31.1 mph N/A   Clear
4:35 PM 32.0 °F 18.6 °F 24.8 °F 75% 29.72 in 10.0 mi NW 25.3 mph 31.1 mph N/A   Clear
5:15 PM 28.4 °F 14.7 °F 23.0 °F 80% 29.74 in 10.0 mi NW 21.9 mph 28.8 mph N/A   Clear
5:35 PM 28.4 °F 13.8 °F 23.0 °F 80% 29.77 in 10.0 mi NW 25.3 mph 31.1 mph N/A   Partly Cloudy
5:55 PM 26.6 °F 13.4 °F 21.2 °F 80% 29.78 in 10.0 mi NW 18.4 mph 26.5 mph N/A   Partly Cloudy
6:15 PM 26.6 °F 13.8 °F 21.2 °F 80% 29.79 in 10.0 mi NW 17.3 mph 23.0 mph N/A   Clear
6:35 PM 26.6 °F 13.8 °F 21.2 °F 80% 29.81 in 10.0 mi NW 17.3 mph 21.9 mph N/A   Clear
6:55 PM 26.6 °F 14.3 °F 21.2 °F 80% 29.82 in 10.0 mi NW 16.1 mph 20.7 mph N/A   Clear
7:15 PM 26.6 °F 13.8 °F 21.2 °F 80% 29.83 in 10.0 mi NW 17.3 mph - N/A   Clear
7:35 PM 26.6 °F 14.7 °F 21.2 °F 80% 29.85 in 10.0 mi NW 15.0 mph 21.9 mph N/A   Clear
7:55 PM 26.6 °F 13.1 °F 21.2 °F 80% 29.86 in 10.0 mi WNW 19.6 mph 26.5 mph N/A   Clear
8:15 PM 28.4 °F 14.7 °F 23.0 °F 80% 29.87 in 10.0 mi WNW 21.9 mph 28.8 mph N/A   Clear
8:35 PM 28.4 °F 15.4 °F 23.0 °F 80% 29.88 in 10.0 mi WNW 19.6 mph 32.2 mph N/A   Clear
8:55 PM 28.4 °F 14.7 °F 23.0 °F 80% 29.88 in 10.0 mi WNW 21.9 mph 27.6 mph N/A   Clear
9:15 PM 28.4 °F 14.1 °F 23.0 °F 80% 29.89 in 10.0 mi WNW 24.2 mph 31.1 mph N/A   Clear
9:35 PM 28.4 °F 15.1 °F 23.0 °F 80% 29.90 in 10.0 mi WNW 20.7 mph 26.5 mph N/A   Clear
10:15 PM 28.4 °F 16.2 °F 23.0 °F 80% 29.92 in 10.0 mi WNW 17.3 mph 27.6 mph N/A   Mostly Cloudy
10:35 PM 28.4 °F 17.0 °F 23.0 °F 80% 29.92 in 10.0 mi WNW 15.0 mph 27.6 mph N/A   Overcast
11:15 PM 30.2 °F 18.1 °F 23.0 °F 75% 29.92 in 10.0 mi WNW 18.4 mph 27.6 mph N/A   Overcast
11:35 PM 30.2 °F 18.5 °F 23.0 °F 75% 29.91 in 10.0 mi WNW 17.3 mph 28.8 mph N/A   Overcast
11:55 PM 30.2 °F 18.1 °F 23.0 °F 75% 29.91 in 10.0 mi WNW 18.4 mph 29.9 mph N/A   Overcast